TimeCST,TemperatureF,Dew PointF,Humidity,Sea Level PressureIn,VisibilityMPH,Wind Direction,Wind SpeedMPH,Gust SpeedMPH,PrecipitationIn,Events,Conditions,WindDirDegrees,DateUTC
12:15 AM,26.6,10.4,51,30.19,10.0,Calm,Calm,-,N/A,,Overcast,0,2013-01-25 06:15:00
12:35 AM,26.6,10.4,51,30.20,10.0,Calm,Calm,-,N/A,,Overcast,0,2013-01-25 06:35:00
12:55 AM,26.6,10.4,51,30.19,10.0,North,3.5,-,N/A,,Overcast,10,2013-01-25 06:55:00
1:15 AM,26.6,10.4,51,30.20,10.0,North,6.9,-,N/A,,Overcast,360,2013-01-25 07:15:00
1:35 AM,26.6,10.4,51,30.20,10.0,North,6.9,-,N/A,,Overcast,360,2013-01-25 07:35:00
1:55 AM,26.6,10.4,51,30.19,10.0,North,4.6,-,N/A,,Overcast,360,2013-01-25 07:55:00
2:15 AM,26.6,10.4,51,30.19,10.0,Calm,Calm,-,N/A,,Overcast,0,2013-01-25 08:15:00
2:35 AM,26.6,8.6,47,30.19,10.0,North,4.6,-,N/A,,Overcast,360,2013-01-25 08:35:00
2:55 AM,26.6,10.4,51,30.18,10.0,North,3.5,-,N/A,,Overcast,360,2013-01-25 08:55:00
3:15 AM,26.6,10.4,51,30.18,10.0,North,3.5,-,N/A,,Overcast,350,2013-01-25 09:15:00
3:35 AM,26.6,10.4,51,30.17,10.0,North,3.5,-,N/A,,Overcast,350,2013-01-25 09:35:00
3:55 AM,26.6,10.4,51,30.15,10.0,Calm,Calm,-,N/A,,Overcast,0,2013-01-25 09:55:00
4:15 AM,26.6,10.4,51,30.16,10.0,Calm,Calm,-,N/A,,Overcast,0,2013-01-25 10:15:00
4:35 AM,26.6,10.4,51,30.15,10.0,Calm,Calm,-,N/A,,Overcast,0,2013-01-25 10:35:00
4:55 AM,26.6,10.4,51,30.16,10.0,Calm,Calm,-,N/A,,Overcast,0,2013-01-25 10:55:00
5:15 AM,26.6,10.4,51,30.15,10.0,Calm,Calm,-,N/A,,Mostly Cloudy,0,2013-01-25 11:15:00
5:35 AM,26.6,10.4,51,30.15,10.0,Calm,Calm,-,N/A,,Clear,0,2013-01-25 11:35:00
5:55 AM,24.8,10.4,54,30.16,10.0,Calm,Calm,-,N/A,,Clear,0,2013-01-25 11:55:00
6:15 AM,23.0,12.2,63,30.17,10.0,Calm,Calm,-,N/A,,Clear,0,2013-01-25 12:15:00
6:35 AM,21.2,12.2,68,30.17,10.0,Calm,Calm,-,N/A,,Clear,0,2013-01-25 12:35:00
6:55 AM,21.2,12.2,68,30.18,10.0,Calm,Calm,-,N/A,,Clear,0,2013-01-25 12:55:00
7:15 AM,19.4,12.2,74,30.19,10.0,Calm,Calm,-,N/A,,Clear,0,2013-01-25 13:15:00
7:35 AM,19.4,12.2,74,30.19,10.0,Calm,Calm,-,N/A,,Clear,0,2013-01-25 13:35:00
7:55 AM,19.4,12.2,74,30.19,10.0,Calm,Calm,-,N/A,,Clear,0,2013-01-25 13:55:00
8:15 AM,19.4,14.0,80,30.19,10.0,Calm,Calm,-,N/A,,Clear,0,2013-01-25 14:15:00
8:35 AM,21.2,14.0,74,30.20,10.0,Calm,Calm,-,N/A,,Clear,0,2013-01-25 14:35:00
8:55 AM,23.0,14.0,68,30.20,10.0,Calm,Calm,-,N/A,,Clear,0,2013-01-25 14:55:00
9:15 AM,26.6,14.0,59,30.20,10.0,WSW,3.5,-,N/A,,Clear,240,2013-01-25 15:15:00
9:35 AM,28.4,17.6,64,30.20,10.0,West,4.6,-,N/A,,Unknown,270,2013-01-25 15:35:00
9:55 AM,30.2,17.6,60,30.20,10.0,WNW,10.4,-,N/A,,Clear,290,2013-01-25 15:55:00
10:15 AM,32.0,17.6,55,30.21,10.0,West,8.1,-,N/A,,Clear,270,2013-01-25 16:15:00
10:35 AM,32.0,15.8,51,30.21,10.0,WNW,9.2,-,N/A,,Clear,290,2013-01-25 16:35:00
10:55 AM,32.0,15.8,51,30.22,10.0,NW,8.1,-,N/A,,Clear,310,2013-01-25 16:55:00
11:15 AM,33.8,17.6,52,30.22,10.0,West,5.8,-,N/A,,Clear,280,2013-01-25 17:15:00
11:35 AM,33.8,17.6,52,30.22,10.0,WNW,6.9,-,N/A,,Clear,290,2013-01-25 17:35:00
11:55 AM,35.6,17.6,48,30.21,10.0,NW,5.8,-,N/A,,Clear,320,2013-01-25 17:55:00
12:15 PM,35.6,17.6,48,30.20,10.0,West,6.9,-,N/A,,Clear,260,2013-01-25 18:15:00
12:35 PM,37.4,17.6,45,30.19,10.0,NW,6.9,-,N/A,,Clear,310,2013-01-25 18:35:00
12:55 PM,39.2,17.6,42,30.18,10.0,WNW,4.6,-,N/A,,Clear,290,2013-01-25 18:55:00
1:15 PM,41.0,19.4,42,30.18,10.0,West,6.9,-,N/A,,Clear,270,2013-01-25 19:15:00
1:35 PM,41.0,19.4,42,30.17,10.0,West,6.9,-,N/A,,Clear,260,2013-01-25 19:35:00
1:55 PM,42.8,19.4,39,30.17,10.0,WSW,8.1,-,N/A,,Clear,240,2013-01-25 19:55:00
2:15 PM,42.8,19.4,39,30.17,10.0,WNW,8.1,-,N/A,,Clear,300,2013-01-25 20:15:00
2:35 PM,44.6,19.4,37,30.17,10.0,West,5.8,-,N/A,,Clear,260,2013-01-25 20:35:00
2:55 PM,44.6,19.4,37,30.17,10.0,West,8.1,-,N/A,,Clear,260,2013-01-25 20:55:00
3:15 PM,44.6,19.4,37,30.17,10.0,West,9.2,-,N/A,,Clear,260,2013-01-25 21:15:00
3:35 PM,44.6,19.4,37,30.17,10.0,WNW,5.8,-,N/A,,Clear,290,2013-01-25 21:35:00
3:55 PM,44.6,19.4,37,30.17,10.0,West,5.8,-,N/A,,Clear,280,2013-01-25 21:55:00
4:15 PM,44.6,19.4,37,30.17,10.0,WNW,4.6,-,N/A,,Clear,300,2013-01-25 22:15:00
4:35 PM,44.6,19.4,37,30.17,10.0,Calm,Calm,-,N/A,,Clear,0,2013-01-25 22:35:00
4:55 PM,44.6,21.2,39,30.18,10.0,WSW,3.5,-,N/A,,Clear,240,2013-01-25 22:55:00
5:15 PM,44.6,21.2,39,30.18,10.0,SW,3.5,-,N/A,,Clear,220,2013-01-25 23:15:00
5:35 PM,42.8,21.2,42,30.17,10.0,Calm,Calm,-,N/A,,Clear,0,2013-01-25 23:35:00
5:55 PM,39.2,21.2,49,30.18,10.0,Calm,Calm,-,N/A,,Clear,0,2013-01-25 23:55:00
6:15 PM,35.6,21.2,56,30.19,10.0,Calm,Calm,-,N/A,,Clear,0,2013-01-26 00:15:00
6:35 PM,33.8,21.2,60,30.19,10.0,Calm,Calm,-,N/A,,Clear,0,2013-01-26 00:35:00
6:55 PM,33.8,21.2,60,30.19,10.0,Calm,Calm,-,N/A,,Unknown,0,2013-01-26 00:55:00
7:15 PM,32.0,21.2,64,30.20,10.0,Calm,Calm,-,N/A,,Clear,0,2013-01-26 01:15:00
7:35 PM,32.0,21.2,64,30.20,10.0,Calm,Calm,-,N/A,,Clear,0,2013-01-26 01:35:00
7:55 PM,32.0,21.2,64,30.21,10.0,Calm,Calm,-,N/A,,Clear,0,2013-01-26 01:55:00
8:15 PM,30.2,21.2,69,30.22,10.0,Calm,Calm,-,N/A,,Clear,0,2013-01-26 02:15:00
8:35 PM,30.2,21.2,69,30.22,10.0,Calm,Calm,-,N/A,,Clear,0,2013-01-26 02:35:00
8:55 PM,30.2,21.2,69,30.22,10.0,Calm,Calm,-,N/A,,Clear,0,2013-01-26 02:55:00
9:15 PM,28.4,21.2,74,30.23,10.0,Calm,Calm,-,N/A,,Clear,0,2013-01-26 03:15:00
9:35 PM,28.4,21.2,74,30.24,10.0,Calm,Calm,-,N/A,,Clear,0,2013-01-26 03:35:00
9:55 PM,28.4,21.2,74,30.23,10.0,Calm,Calm,-,N/A,,Clear,0,2013-01-26 03:55:00
10:15 PM,26.6,21.2,80,30.24,10.0,Calm,Calm,-,N/A,,Clear,0,2013-01-26 04:15:00
10:35 PM,26.6,21.2,80,30.24,10.0,Calm,Calm,-,N/A,,Clear,0,2013-01-26 04:35:00
10:55 PM,26.6,21.2,80,30.24,10.0,Calm,Calm,-,N/A,,Clear,0,2013-01-26 04:55:00
11:15 PM,26.6,21.2,80,30.24,10.0,Calm,Calm,-,N/A,,Unknown,0,2013-01-26 05:15:00
11:35 PM,26.6,21.2,80,30.24,10.0,Calm,Calm,-,N/A,,Clear,0,2013-01-26 05:35:00
11:55 PM,24.8,21.2,86,30.25,10.0,Calm,Calm,-,N/A,,Clear,0,2013-01-26 05:55:00